Abbeville, LA

12:38 PM CDT on August 25, 2016 (GMT -0500)
Abbeville

Weather History for KIYA - March, 2013

Change the Weather History Date:

Thursday, March 21, 2013

  Actual Average (KARA) Record (KARA)
Temperature  
Mean Temperature 58 °F 63 °F  
Max Temperature 69 °F 74 °F 85 °F (1948)
Min Temperature 48 °F 52 °F 33 °F (1996)
Degree Days  
Heating Degree Days 6 4  
Month to date heating degree days 113  
Since 1 July heating degree days 1329  
Cooling Degree Days 0 2  
Month to date cooling degree days 27  
Year to date cooling degree days 58  
Growing Degree Days 8 (Base 50)    
Moisture  
Dew Point 44 °F    
Average Humidity 60    
Maximum Humidity 94    
Minimum Humidity 33    
Precipitation  
Precipitation 0.00 in 0.10 in 2.83 in (1949)
Month to date precipitation 2.58  
Year to date precipitation 11.99  
Sea Level Pressure  
Sea Level Pressure 29.95 in    
Wind  
Wind Speed 5 mph (ESE)    
Max Wind Speed 18 mph    
Max Gust Speed 26 mph    
Visibility 10 miles    
Events      
T = Trace of Precipitation, MM = Missing Value Source: NWS Daily Summary

Daily Weather History Graph

Daily Weather History Graph

Search for Another Location

Airport or City:

Trip Planner

Search our weather history database for the weather conditions in past years. The results will help you decide how hot, cold, wet, or windy it might be!

Date:

Astronomy

Mar. 21, 2013 Rise Set
Actual Time 7:10 AM CDT 7:20 PM CDT
Civil Twilight 6:46 AM CDT 7:44 PM CDT
Nautical Twilight 6:18 AM CDT 8:12 PM CDT
Astronomical Twilight 5:50 AM CDT 8:40 PM CDT
Moon 2:11 PM CDT (3/21) 3:11 AM CDT (3/21)
Length of Visible Light 12h 57m
Length of Day
12h 09m
Waxing Gibbous, 69% of the Moon is Illuminated
Mar 21
Waxing Gibbous
Mar 27
Full
Apr 2
Last Quarter
Apr 10
New
Apr 18
First Quarter

Hourly Weather History & Observations

Time (CDT) Temp. Dew Point Humidity Pressure Visibility Wind Dir Wind Speed Gust Speed Precip Events Conditions
12:15 AM 51.8 °F 40.3 °F 65% 30.06 in 10.0 mi Calm Calm - N/A   Clear
12:55 AM 50.5 °F 41.4 °F 71% 30.06 in 10.0 mi Calm Calm - N/A   Clear
1:15 AM 50.9 °F 41.2 °F 69% 30.05 in 10.0 mi Calm Calm - N/A   Clear
1:35 AM 50.4 °F 43.2 °F 76% 30.05 in 10.0 mi Calm Calm - N/A   Clear
1:55 AM 50.9 °F 42.3 °F 72% 30.04 in 10.0 mi Calm Calm - N/A   Clear
2:15 AM 48.7 °F 44.8 °F 86% 30.04 in 10.0 mi Calm Calm - N/A   Clear
2:35 AM 49.6 °F 47.8 °F 94% 30.03 in 10.0 mi Calm Calm - N/A   Clear
2:55 AM 49.1 °F 46.4 °F 90% 30.03 in 10.0 mi North - - N/A   Clear
3:15 AM 48.7 °F 45.9 °F 90% 30.03 in 10.0 mi Calm Calm - N/A   Clear
3:35 AM 49.6 °F 43.5 °F 79% 30.02 in 10.0 mi Calm Calm - N/A   Clear
3:55 AM 50.2 °F 42.6 °F 75% 30.03 in 10.0 mi Calm Calm - N/A   Clear
4:15 AM 49.6 °F 44.1 °F 81% 30.02 in 10.0 mi Calm Calm - N/A   Clear
4:55 AM 49.1 °F 43.0 °F 79% 30.03 in 10.0 mi NNE 3.5 mph - N/A   Clear
5:15 AM 49.3 °F 42.6 °F 78% 30.02 in 10.0 mi Calm Calm - N/A   Clear
5:35 AM 48.7 °F 45.7 °F 89% 30.02 in 10.0 mi Calm Calm - N/A   Clear
5:55 AM 50.0 °F 42.4 °F 75% 30.02 in 10.0 mi ENE 4.6 mph - N/A   Clear
6:15 AM 50.5 °F 41.2 °F 70% 30.02 in 10.0 mi East 3.5 mph - N/A   Clear
6:35 AM 50.5 °F 41.4 °F 71% 30.03 in 10.0 mi Calm Calm - N/A   Clear
6:55 AM 50.5 °F 41.0 °F 70% 30.03 in 10.0 mi Calm Calm - N/A   Clear
7:35 AM 49.6 °F 44.6 °F 83% 30.04 in 10.0 mi Calm Calm - N/A   Clear
7:55 AM 50.4 °F 44.8 °F 81% 30.03 in 10.0 mi Calm Calm - N/A   Clear
8:15 AM 50.4 °F 43.7 °F 78% 30.04 in 10.0 mi Calm Calm - N/A   Clear
8:35 AM 53.2 °F 44.1 °F 71% 30.04 in 10.0 mi East 3.5 mph - N/A   Clear
8:55 AM 56.5 °F 44.8 °F 65% 30.04 in 10.0 mi East 8.1 mph - N/A   Clear
9:15 AM 58.5 °F 43.9 °F 58% 30.03 in 10.0 mi East 6.9 mph - N/A   Clear
9:55 AM 61.7 °F 43.7 °F 52% 30.04 in 10.0 mi East 6.9 mph - N/A   Clear
10:15 AM 63.3 °F 42.1 °F 46% 30.03 in 10.0 mi East 6.9 mph - N/A   Clear
10:35 AM 64.8 °F 41.9 °F 43% 30.04 in 10.0 mi East 8.1 mph - N/A   Scattered Clouds
10:55 AM 64.8 °F 39.6 °F 40% 30.02 in 10.0 mi East 9.2 mph - N/A   Mostly Cloudy
11:15 AM 65.8 °F 38.1 °F 36% 30.02 in 10.0 mi East 5.8 mph 16.1 mph N/A   Scattered Clouds
11:35 AM 66.9 °F 38.7 °F 35% 30.01 in 10.0 mi SE 9.2 mph 16.1 mph N/A   Clear
11:55 AM 67.6 °F 39.4 °F 36% 30.01 in 10.0 mi East 8.1 mph - N/A   Clear
12:15 PM 68.4 °F 39.6 °F 35% 30.00 in 10.0 mi SE 11.5 mph 16.1 mph N/A   Clear
12:35 PM 69.3 °F 41.5 °F 37% 29.99 in 10.0 mi SSE 13.8 mph 18.4 mph N/A   Clear
12:55 PM 69.6 °F 43.0 °F 38% 29.99 in 10.0 mi SSE 15.0 mph 18.4 mph N/A   Clear
1:15 PM 66.6 °F 42.3 °F 41% 29.98 in 10.0 mi SSE 12.7 mph - N/A   Scattered Clouds
1:35 PM 66.7 °F 42.3 °F 41% 29.96 in 10.0 mi SSE 12.7 mph 19.6 mph N/A   Mostly Cloudy
1:55 PM 69.3 °F 39.9 °F 34% 29.95 in 10.0 mi SSE 13.8 mph 19.6 mph N/A   Clear
2:15 PM 67.6 °F 37.2 °F 33% 29.94 in 10.0 mi SSE 16.1 mph 19.6 mph N/A   Clear
2:35 PM 69.4 °F 40.3 °F 35% 29.92 in 10.0 mi SSE 15.0 mph 21.9 mph N/A   Mostly Cloudy
2:55 PM 68.2 °F 41.2 °F 37% 29.91 in 10.0 mi SSE 16.1 mph 20.7 mph N/A   Scattered Clouds
3:15 PM 68.2 °F 41.4 °F 38% 29.90 in 10.0 mi SSE 13.8 mph 23.0 mph N/A   Scattered Clouds
3:35 PM 68.4 °F 42.3 °F 39% 29.89 in 10.0 mi SSE 17.3 mph 21.9 mph N/A   Clear
3:55 PM 67.1 °F 42.3 °F 40% 29.89 in 10.0 mi SSE 12.7 mph 23.0 mph N/A   Mostly Cloudy
4:15 PM 66.7 °F 44.2 °F 44% 29.89 in 10.0 mi SSE 18.4 mph 25.3 mph N/A   Overcast
4:35 PM 67.6 °F 45.7 °F 45% 29.87 in 10.0 mi SSE 17.3 mph 24.2 mph N/A   Scattered Clouds
4:55 PM 67.8 °F 47.3 °F 48% 29.87 in 10.0 mi SSE 16.1 mph 26.5 mph N/A   Clear
5:15 PM 66.7 °F 47.7 °F 50% 29.86 in 10.0 mi SSE 12.7 mph 23.0 mph N/A   Clear
5:35 PM 65.7 °F 46.8 °F 50% 29.86 in 10.0 mi SSE 15.0 mph 23.0 mph N/A   Clear
5:55 PM 65.3 °F 46.0 °F 50% 29.85 in 10.0 mi SSE 18.4 mph 24.2 mph N/A   Clear
6:15 PM 64.8 °F 43.7 °F 46% 29.84 in 10.0 mi SE 16.1 mph 23.0 mph N/A   Clear
6:55 PM 63.3 °F 42.8 °F 47% 29.83 in 10.0 mi SE 10.4 mph 17.3 mph N/A   Mostly Cloudy
7:15 PM 63.0 °F 43.0 °F 48% 29.84 in 10.0 mi SE 6.9 mph 18.4 mph N/A   Overcast
7:35 PM 62.6 °F 44.6 °F 52% 29.85 in 10.0 mi ESE 9.2 mph - N/A   Overcast
7:55 PM 62.1 °F 44.8 °F 53% 29.84 in 10.0 mi ESE 8.1 mph - N/A   Overcast
8:15 PM 61.2 °F 44.8 °F 55% 29.84 in 10.0 mi ESE 5.8 mph - N/A   Overcast
8:35 PM 61.0 °F 45.7 °F 57% 29.84 in 10.0 mi SE 5.8 mph - N/A   Overcast
8:55 PM 60.8 °F 47.7 °F 62% 29.85 in 10.0 mi ESE 4.6 mph - N/A   Overcast
9:15 PM 60.3 °F 49.3 °F 67% 29.84 in 10.0 mi ESE 4.6 mph - N/A   Overcast
9:35 PM 59.9 °F 50.9 °F 72% 29.85 in 10.0 mi ESE 4.6 mph - N/A   Mostly Cloudy
9:55 PM 60.1 °F 51.8 °F 74% 29.84 in 10.0 mi ESE 5.8 mph - N/A   Overcast
10:15 PM 60.6 °F 52.7 °F 75% 29.84 in 10.0 mi ESE 6.9 mph - N/A   Overcast
10:35 PM 60.8 °F 52.9 °F 75% 29.85 in 10.0 mi East 4.6 mph - N/A   Overcast
10:55 PM 60.4 °F 52.7 °F 76% 29.86 in 10.0 mi ENE 3.5 mph - N/A   Overcast
11:15 PM 60.4 °F 52.7 °F 76% 29.86 in 10.0 mi East 6.9 mph - N/A   Overcast
11:35 PM 60.8 °F 53.1 °F 76% 29.86 in 10.0 mi East 6.9 mph - N/A   Overcast
11:55 PM 61.2 °F 53.6 °F 76% 29.86 in 10.0 mi East 4.6 mph - N/A   Overcast